STARLINK-36695

Last updated on Tue Mar 10 2026 00:02:05 GMT+0000 (Coordinated Universal Time)

1 67702U 26025K 26068.27194298 .00179731 00000+0 11776-2 0 9992 2 67702 97.2841 179.8188 0001669 80.0716 280.0738 15.75249739 5871
UTC large
Height (km)
Speed (km/s)
/
Latitude / Longitude
Inclination (degrees)
Orbital Period (minutes)
Azimuth
Elevation
Range (km)
Doppler Factor

Next 0 passes for location: London (51.5072 / 0.1276)

Sorry there are no passes over London.